EW9741 Weather Reports


Display with metric or nautical units.
time (UTC)temp
F
wind
direction
speed
MPH
gust
MPH
rain 1hr
in
rain 24hr
in
rain mn
in
humidity
%
barometer
mb
20260506213005 57 190 0.0 0.0 0.00 0.61 0.53 52 1012.3
20260506211556 58 190 0.0 0.0 0.00 0.61 0.53 52 1012.1
20260506210055 58 190 0.0 6.0 0.00 0.61 0.53 50 1012.0
20260506204556 58 190 0.0 0.0 0.00 0.79 0.53 49 1011.9
20260506203047 57 190 0.0 0.0 0.00 0.79 0.53 50 1012.0
20260506201537 57 190 0.0 0.0 0.00 0.79 0.53 50 1012.0
20260506200034 58 190 0.0 0.0 0.00 0.79 0.53 52 1012.1
20260506194529 59 190 0.0 0.0 0.00 0.80 0.53 51 1012.0
20260506193024 59 190 0.0 0.0 0.00 0.80 0.53 51 1011.8
20260506191518 59 190 0.0 0.0 0.00 0.80 0.53 51 1011.5
20260506190013 59 190 0.0 0.0 0.00 0.80 0.53 49 1011.6
20260506184509 59 190 0.0 3.0 0.00 0.80 0.53 47 1011.5
20260506183007 59 44 0.0 5.0 0.00 0.80 0.53 48 1011.4
20260506181534 58 13 0.0 0.0 0.00 0.80 0.53 50 1011.5
20260506180029 58 323 0.0 0.0 0.00 0.80 0.53 52 1011.8
20260506174519 57 82 0.0 0.0 0.00 0.80 0.53 55 1011.9
20260506173015 57 333 0.0 0.0 0.00 0.80 0.53 54 1012.0
20260506171513 57 297 0.0 0.0 0.00 0.80 0.53 56 1012.1
20260506170007 57 46 0.0 0.0 0.00 0.80 0.53 54 1012.2
20260506164503 56 77 0.0 0.0 0.00 0.80 0.53 56 1012.3
20260506163029 55 46 0.0 0.0 0.00 0.80 0.53 60 1012.1
20260506161524 54 72 0.0 0.0 0.00 0.80 0.53 59 1012.3
20260506160017 53 58 0.0 12.0 0.00 0.80 0.53 62 1012.1
20260506154513 53 6 0.0 0.0 0.00 0.80 0.53 63 1011.9
20260506153009 52 58 0.0 0.0 0.00 0.80 0.53 65 1012.2
20260506151505 52 343 0.0 0.0 0.00 0.80 0.53 66 1011.8
20260506150059 51 25 0.0 0.0 0.00 0.80 0.53 70 1011.9
20260506144601 51 328 0.0 0.0 0.00 0.80 0.53 73 1011.3
20260506143049 50 36 0.0 0.0 0.00 0.80 0.53 77 1011.0
20260506141545 49 20 0.0 0.0 0.00 0.80 0.53 78 1011.1
20260506140053 49 48 0.0 0.0 0.00 0.80 0.53 83 1011.0
20260506134537 48 314 0.0 0.0 0.00 0.80 0.53 84 1011.0
20260506133042 48 16 0.0 2.0 0.00 0.80 0.53 84 1010.9
20260506131530 47 345 0.0 0.0 0.00 0.80 0.53 89 1010.3
20260506130018 46 298 0.0 5.0 0.00 0.80 0.53 88 1010.3
20260506124514 46 345 0.0 5.0 0.00 0.80 0.53 89 1010.5
20260506123009 46 310 0.0 0.0 0.00 0.80 0.53 91 1010.6
20260506121506 45 339 0.0 0.0 0.00 0.80 0.53 92 1010.2
20260506120059 44 329 0.0 0.0 0.00 0.80 0.53 94 1009.8
20260506114600 44 294 0.0 0.0 0.00 0.80 0.53 94 1009.3
20260506113150 0 0.0 0.0 0.00 0.80 0.53 1009.2
20260506111546 0 0.0 0.0 0.00 0.80 0.53 1008.9
20260506110036 0 0.0 0.0 0.00 0.80 0.53 1009.0
20260506103135 44 256 0.0 0.0 0.00 0.84 0.53 95 1008.2
20260506101543 44 323 0.0 0.0 0.00 0.84 0.53 95 1008.1
20260506100016 44 25 0.0 0.0 0.00 0.84 0.53 95 1007.5
20260506094601 44 318 0.0 0.0 0.00 0.84 0.53 95 1007.5
20260506091526 44 51 0.0 0.0 0.01 0.84 0.53 95 1007.2
20260506090006 44 54 0.0 14.0 0.02 0.84 0.53 95 1007.0
20260506084504 45 37 0.0 12.0 0.02 0.84 0.53 95 1007.5
20260506073038 46 56 0.0 0.0 0.10 0.81 0.50 97 1006.4
20260506071526 47 27 0.0 0.0 0.09 0.79 0.48 97 1006.7
20260506070104 47 319 0.0 0.0 0.08 0.77 0.46 97 1006.3
20260506061517 48 56 2.0 12.0 0.10 0.70 0.39 96 1005.7
20260506044632 58 222 0.0 0.0 0.05 0.52 0.21 97 1005.6
20260506043055 58 286 0.0 0.0 0.02 0.49 0.18 97 1005.6
20260506041553 58 224 0.0 0.0 0.00 0.47 0.16 97 1005.6
20260506040052 58 160 0.0 0.0 0.00 0.47 0.16 97 1005.4
20260506034549 58 153 0.0 0.0 0.01 0.47 0.16 97 1005.6
20260506033052 58 164 0.0 0.0 0.01 0.47 0.16 97 1005.7
20260506031546 58 160 0.0 0.0 0.01 0.47 0.16 97 1005.8
20260506030045 58 113 0.0 0.0 0.02 0.47 0.16 97 1006.1
20260506024548 58 221 0.0 0.0 0.03 0.46 0.15 97 1006.5
20260506023056 58 221 0.0 0.0 0.03 0.46 0.15 97 1006.7
20260506021553 58 159 0.0 0.0 0.06 0.46 0.15 97 1006.6
20260506020042 58 206 0.0 0.0 0.10 0.45 0.14 97 1006.7
20260506014544 58 231 0.0 0.0 0.09 0.43 0.12 97 1006.7
20260506013040 59 245 0.0 0.0 0.09 0.43 0.12 97 1006.6
20260506011512 59 164 0.0 0.0 0.07 0.40 0.09 97 1006.4
20260506010021 59 275 0.0 0.0 0.01 0.34 0.03 97 1006.6
20260506004505 59 176 0.0 0.0 0.02 0.34 0.03 97 1006.0
20260506003005 59 178 0.0 0.0 0.03 0.34 0.03 97 1006.1
20260506001503 59 158 0.0 0.0 0.02 0.33 0.02 97 1005.9
20260506000002 59 141 0.0 0.0 0.02 0.33 0.02 97 1005.7
20260505234609 59 162 0.0 0.0 0.01 0.32 0.01 97 1005.9
20260505233057 59 184 0.0 0.0 0.00 0.31 0.00 97 1006.0
20260505231557 60 191 0.0 0.0 0.00 0.31 0.00 97 1006.1
20260505230054 60 176 0.0 0.0 0.00 0.31 0.00 97 1006.3
20260505224550 60 235 0.0 0.0 0.00 0.31 0.00 97 1006.5
20260505223047 60 193 0.0 2.0 0.01 0.31 0.00 96 1006.8
20260505221546 60 199 0.0 0.0 0.02 0.31 0.00 96 1007.0
20260505220045 60 209 0.0 0.0 0.04 0.31 0.00 96 1007.4
20260505214600 60 201 0.0 0.0 0.09 0.31 0.31 96 1007.3